Location: Unspecified
(0.0000°N, 0.0000°E)
Time: 08:53:48
(UTC+00:00)

THOR ABLESTAR DEB - Visible Passes

Search period start: 10 April 2026 00:00
Search period end: 20 April 2026 00:00
Orbit: 1059 x 1120 km, 90.0° (Epoch: 9 April)

Date Brightness Start Highest point End Pass type
(mag) Time Alt. Az. Time Alt. Az. Time Alt. Az.
16 Apr ? 20:27:17 10° N 20:28:04 14° N 20:28:04 14° N visible
17 Apr ? 19:40:30 10° NNE 19:40:56 12° NNE 19:40:56 12° NNE visible
18 Apr ? 20:38:51 10° N 20:40:59 22° NNW 20:40:59 22° NNW visible
19 Apr ? 19:51:21 10° NNE 19:53:55 25° NNE 19:53:55 25° NNE visible
